Location: Presov
(49.0000°N, 21.2500°E)
Time: 00:06:14
(UTC+02:00)

Envisat - Pass Details

Date: 08 June 2023
Orbit: 763 x 764 km, 98.2° (Epoch: 22 September)

Event Time Altitude Azimuth Distance (km) Brightness Sun altitude
Rises 02:58:52 0° 31° (NNE) 3,240 8.5 -11.3°
Reaches altitude 10° 03:02:32 10° 58° (ENE) 2,308 6.7 -10.9°
Maximum altitude 03:04:54 13° 86° (E) 2,088 5.8 -10.7°
Drops below altitude 10° 03:07:15 10° 114° (ESE) 2,300 5.6 -10.5°
Sets 03:10:52 0° 141° (SE) 3,220 6.1 -10.1°
